Weather reports worldwide

Advertisment
Reggio Calabria, Italy (16422): temperature & dewpoint: 03.08.2020 22:00:00 - 09.08.2020 22:00:00 (CEST)Reggio Calabria, Italy (16422): wind speed: 03.08.2020 22:00:00 - 09.08.2020 22:00:00 (CEST)Reggio Calabria, Italy (16422): wind direction: 03.08.2020 22:00:00 - 09.08.2020 22:00:00 (CEST)Reggio Calabria, Italy (16422): reduced air pressure: 03.08.2020 22:00:00 - 09.08.2020 22:00:00 (CEST)Reggio Calabria, Italy (16422): visibility: 03.08.2020 22:00:00 - 09.08.2020 22:00:00 (CEST)
Date & Time tt [°C] td [°C] ff [km/h] ff [kn] dd ppp [hPa] vv [km]
09.08.2020 22:00:00 - - - - - - -
09.08.2020 21:00:00 27,0 18,0 15 8 NNE - 10
09.08.2020 20:00:00 27,5 17,0 15 8 N 1011,7 10
09.08.2020 19:00:00 29,0 18,0 21 11 N - 10
09.08.2020 18:00:00 30,0 19,0 24 13 N - 10
09.08.2020 17:00:00 29,5 19,0 26 14 N 1011,4 10
09.08.2020 16:00:00 30,0 19,0 24 13 N - 10
09.08.2020 15:00:00 31,0 18,0 22 12 N - 10
09.08.2020 14:00:00 30,3 19,1 24 13 N 1012,1 10
09.08.2020 13:00:00 30,0 20,0 24 13 N - 10
09.08.2020 12:00:00 29,0 21,0 22 12 NNE - 10
09.08.2020 11:00:00 25,5 21,6 13 7 NE 1012,6 10
09.08.2020 10:00:00 27,0 21,0 15 8 NNE - 10
09.08.2020 09:00:00 27,0 21,0 16 9 NNE - 10
09.08.2020 08:00:00 25,7 20,6 13 7 NNE 1012,1 10
09.08.2020 07:00:00 23,0 19,0 15 8 NE - 10
09.08.2020 06:00:00 23,0 20,0 16 9 NE - 10
09.08.2020 05:00:00 21,9 20,0 13 7 NE 1011,6 -
09.08.2020 04:00:00 - - - - - - -
09.08.2020 03:00:00 - - - - - - -
09.08.2020 02:00:00 24,3 18,4 9 5 ENE 1012,4 -
09.08.2020 01:00:00 - - - - - - -
09.08.2020 00:00:00 - - - - - - -
08.08.2020 23:00:00 23,7 18,2 11 6 NE 1013,0 -
08.08.2020 22:00:00 - - - - - - -
08.08.2020 21:00:00 - - - - - - -
08.08.2020 20:00:00 26,0 20,5 13 7 N 1012,8 -
08.08.2020 19:00:00 - - - - - - -
08.08.2020 18:00:00 - - - - - - -
08.08.2020 17:00:00 27,9 20,3 13 7 NNW 1012,5 -
08.08.2020 16:00:00 25,0 21,0 13 7 W - 10
08.08.2020 15:00:00 26,0 20,0 11 6 W - 10
08.08.2020 14:00:00 24,5 19,6 5 3 S 1013,3 10
08.08.2020 13:00:00 20,0 20,0 11 6 N - 4,0
08.08.2020 12:00:00 20,0 19,0 29 16 NE - 7
08.08.2020 11:00:00 26,3 20,0 13 7 NNE 1013,3 10
08.08.2020 10:00:00 23,0 21,0 4 2 - - 10
08.08.2020 09:00:00 21,0 18,0 34 18 NNE - 10
08.08.2020 08:00:00 23,0 18,8 8 4 N 1013,7 -
08.08.2020 07:00:00 - - - - - - -
08.08.2020 06:00:00 - - - - - - -
08.08.2020 05:00:00 23,7 19,4 11 6 NE 1013,0 -
08.08.2020 04:00:00 - - - - - - -
08.08.2020 03:00:00 - - - - - - -
08.08.2020 02:00:00 22,3 19,6 11 6 NE 1013,9 -
08.08.2020 01:00:00 - - - - - - -
08.08.2020 00:00:00 23,0 19,0 5 3 NNE - 10
07.08.2020 23:00:00 23,0 19,0 11 6 ENE 1014,5 10
07.08.2020 22:00:00 24,0 19,0 9 5 NNE - 10
07.08.2020 21:00:00 23,0 19,0 11 6 NE - 10
07.08.2020 20:00:00 23,2 19,5 13 7 NE 1014,7 10
07.08.2020 19:00:00 24,0 19,0 22 12 NNW - 10
07.08.2020 18:00:00 27,0 19,0 26 14 N - 10
07.08.2020 17:00:00 28,5 19,2 18 10 NNW 1013,9 10
07.08.2020 16:00:00 27,0 18,0 18 10 N - 10
07.08.2020 15:00:00 28,0 19,0 18 10 N - 10
07.08.2020 14:00:00 26,6 18,0 21 11 ENE 1014,5 10
07.08.2020 13:00:00 27,0 19,0 8 4 NNE - 10
07.08.2020 12:00:00 23,0 20,0 15 8 NE - 10
07.08.2020 11:00:00 24,2 17,5 22 12 NE 1014,9 4,0
07.08.2020 10:00:00 27,0 19,0 9 5 NE - 10
07.08.2020 09:00:00 25,0 20,0 11 6 E - 10
07.08.2020 08:00:00 22,5 20,1 11 6 E 1014,3 10
07.08.2020 07:00:00 23,0 20,0 5 3 NNE - 10
07.08.2020 06:00:00 21,0 19,0 8 4 NE - 10
07.08.2020 05:00:00 21,7 19,0 11 6 NE 1013,3 -
07.08.2020 04:00:00 - - - - - - -
07.08.2020 03:00:00 - - - - - - -
07.08.2020 02:00:00 22,4 17,2 9 5 NE 1013,8 -
07.08.2020 01:00:00 - - - - - - -
07.08.2020 00:00:00 23,0 17,0 11 6 NE - 10
06.08.2020 23:00:00 23,2 17,2 11 6 NNE 1013,8 10
06.08.2020 22:00:00 24,0 17,0 16 9 NNE - 10
06.08.2020 21:00:00 24,0 18,0 16 9 NNE - 10
06.08.2020 20:00:00 25,0 17,2 18 10 N 1012,8 10
06.08.2020 19:00:00 25,0 17,0 18 10 N - 10
06.08.2020 18:00:00 25,0 19,0 16 9 N - 10
06.08.2020 17:00:00 24,6 18,6 15 8 ENE 1012,0 10
06.08.2020 16:00:00 23,0 18,0 18 10 NW - 10
06.08.2020 15:00:00 30,0 16,0 24 13 N - 10
06.08.2020 14:00:00 29,2 15,1 22 12 N 1011,7 10
06.08.2020 13:00:00 29,0 16,0 18 10 N - 10
06.08.2020 12:00:00 27,0 16,0 16 9 N - 10
06.08.2020 11:00:00 26,1 17,3 16 9 NNW 1011,5 10
06.08.2020 10:00:00 25,0 17,0 16 9 N - 10
06.08.2020 09:00:00 25,0 18,0 11 6 N - 10
06.08.2020 08:00:00 23,2 18,3 11 6 NNE 1010,8 10
06.08.2020 07:00:00 21,0 18,0 4 2 - - 10
06.08.2020 06:00:00 21,0 18,0 13 7 NE - 10
06.08.2020 05:00:00 20,8 17,3 13 7 NE 1009,6 -
06.08.2020 04:00:00 - - - - - - -
06.08.2020 03:00:00 - - - - - - -
06.08.2020 02:00:00 21,9 18,3 13 7 N 1010,3 -
06.08.2020 01:00:00 - - - - - - -
06.08.2020 00:00:00 25,0 15,0 5 3 NNE - 10
05.08.2020 23:00:00 25,1 15,5 9 5 NNE 1009,7 10
05.08.2020 22:00:00 25,0 16,0 16 9 NE - 10
05.08.2020 21:00:00 26,0 16,0 18 10 NE - 10
05.08.2020 20:00:00 25,8 15,7 21 11 NNE 1008,8 10
05.08.2020 19:00:00 26,0 15,0 28 15 N - 10
05.08.2020 18:00:00 28,0 15,0 24 13 NNW - 10
05.08.2020 17:00:00 29,4 16,2 22 12 N 1008,2 10
05.08.2020 16:00:00 - - - - - - -
05.08.2020 15:00:00 29,0 18,0 29 16 N - 10
05.08.2020 14:00:00 30,8 15,1 24 13 NNW 1008,4 10
05.08.2020 13:00:00 30,0 17,0 26 14 NNW - 10
05.08.2020 12:00:00 31,0 15,0 22 12 N - 10
05.08.2020 11:00:00 30,1 15,2 22 12 N 1008,6 10
05.08.2020 10:00:00 29,0 15,0 18 10 N - 10
05.08.2020 09:00:00 28,0 16,0 18 10 N - 10
05.08.2020 08:00:00 27,5 16,3 13 7 NE 1007,9 10
05.08.2020 07:00:00 25,0 17,0 13 7 ENE - 10
05.08.2020 06:00:00 25,0 18,0 13 7 NNE - 10
05.08.2020 05:00:00 25,6 17,8 15 8 N 1007,6 -
05.08.2020 04:00:00 - - - - - - -
05.08.2020 03:00:00 - - - - - - -
05.08.2020 02:00:00 26,1 18,7 15 8 NE 1007,9 -
05.08.2020 01:00:00 - - - - - - -
05.08.2020 00:00:00 27,0 20,0 16 9 NNE - 10
04.08.2020 23:00:00 27,1 20,1 18 10 NNE 1008,7 10
04.08.2020 22:00:00 27,0 20,0 21 11 N - 10
04.08.2020 21:00:00 28,0 22,0 22 12 N - 10
04.08.2020 20:00:00 28,1 21,1 22 12 N 1007,8 10
04.08.2020 19:00:00 29,0 20,0 22 12 NNE - 10
04.08.2020 18:00:00 29,0 20,0 16 9 N - 10
04.08.2020 17:00:00 26,8 21,2 22 12 NNE 1007,5 8
04.08.2020 16:00:00 31,0 18,0 21 11 N - 10
04.08.2020 15:00:00 34,0 19,0 26 14 N - 10
04.08.2020 14:00:00 33,8 19,4 11 6 NW 1007,9 10
04.08.2020 13:00:00 32,0 24,0 15 8 S - 10
04.08.2020 12:00:00 31,0 23,0 15 8 SW - 10
04.08.2020 11:00:00 30,2 23,6 13 7 SSW 1007,9 10
04.08.2020 10:00:00 31,0 20,0 11 6 N - 10
04.08.2020 09:00:00 31,0 21,0 18 10 N - 10
04.08.2020 08:00:00 29,8 21,2 22 12 NNE 1007,2 10
04.08.2020 07:00:00 29,0 21,0 16 9 N - 10
04.08.2020 06:00:00 28,0 21,0 13 7 NNE - 10
04.08.2020 05:00:00 28,6 21,5 16 9 N 1007,6 -
04.08.2020 04:00:00 - - - - - - -
04.08.2020 03:00:00 - - - - - - -
04.08.2020 02:00:00 28,7 20,7 18 10 N 1007,9 -
04.08.2020 01:00:00 - - - - - - -
04.08.2020 00:00:00 29,0 21,0 18 10 NNE - 10
03.08.2020 23:00:00 29,4 19,0 21 11 N 1007,5 10
03.08.2020 22:00:00 30,0 20,0 16 9 N - 10

tt = temperature
td = dewpoint
ff = wind speed
dd = wind direction
ppp = reduced air pressure
vv = visibility

Next stations